[Date Prev][Date Next][Thread Prev][Thread Next] - [Date Index][Thread Index][Author Index]

2 Line ISS Keps 12-9



ISS 
1 25544U 98067A   04343.96479461  .00025628  00000-0  20287-3 0  3214
2 25544  51.6386 153.6774 0004057  90.6017  47.0392 15.71151487345774
----
Via the sarex mailing list at AMSAT.ORG courtesy of AMSAT-NA.
To unsubscribe, send "unsubscribe sarex" to Majordomo@amsat.org



AMSAT Top AMSAT Home